Location: *
(24.1434°N, 56.8729°E)
Time: 18:24:05
(UTC+00:00)

Hubble Space Telescope - Pass Details

Date: 09 April 2020
Orbit: 536 x 540 km, 28.5° (Epoch: 05 June)

Event Time Altitude Azimuth Distance (km) Brightness Sun altitude
Rises 15:41:47 0° 272° (W) 2,666 5.9 -16.4°
Reaches altitude 10° 15:44:06 10° 278° (W) 1,776 4.7 -16.9°
Maximum altitude 15:48:05 48° 354° (N) 698 1.4 -17.7°
Enters shadow 15:49:57 27° 54° (NE) 1,038 1.9 -18.1°
